Christmas Island, Christmas Island

9:14 PM CXT on December 05, 2016 (GMT +0700)
Christmas Island

Weather History for YPXM - June, 2013

Change the Weather History Date:

Thursday, June 27, 2013

  Actual Average Record
Temperature  
Mean Temperature 74 °F -  
Max Temperature 76 °F 78 °F 80 °F (1997)
Min Temperature 73 °F 72 °F 71 °F (1999)
Cooling Degree Days 10    
Growing Degree Days 24 (Base 50)    
Moisture  
Dew Point 73 °F    
Average Humidity 94    
Maximum Humidity 100    
Minimum Humidity 81    
Precipitation  
Precipitation 0.35 in - - ()
Sea Level Pressure  
Sea Level Pressure 29.92 in    
Wind  
Wind Speed 10 mph ()    
Max Wind Speed 15 mph    
Max Gust Speed 23 mph    
Visibility 4.7 miles    
Events Rain    
Averages and records for this station are not official NWS values.
T = Trace of Precipitation, MM = Missing Value Source: Averaged Metar Reports

Daily Weather History Graph

Daily Weather History Graph

Search for Another Location

Airport or City:

Trip Planner

Search our weather history database for the weather conditions in past years. The results will help you decide how hot, cold, wet, or windy it might be!

Date:

Astronomy

Jun. 27, 2013 Rise Set
Actual Time 6:14 AM CXT 5:45 PM CXT
Civil Twilight 5:51 AM CXT 6:08 PM CXT
Nautical Twilight 5:25 AM CXT 6:35 PM CXT
Astronomical Twilight 4:59 AM CXT 7:01 PM CXT
Moon 9:45 PM CXT (6/27) 9:28 AM CXT (6/27)
Length of Visible Light 12h 16m
Length of Day
11h 31m
Waning Gibbous, 81% of the Moon is Illuminated
Jun 27
Waning Gibbous
Jun 30
Last Quarter
Jul 8
New
Jul 16
First Quarter
Jul 23
Full

Hourly Weather History & Observations

Time (CXT) Temp. Dew Point Humidity Pressure Visibility Wind Dir Wind Speed Gust Speed Precip Events Conditions
12:00 AM 74 °F 73 °F 97% 29.91 in 1 mi ESE 11.5 mph - -   Overcast
12:00 AM 73.4 °F 73.4 °F 100% 29.95 in 1.1 mi ESE 11.5 mph - N/A Rain Heavy Rain Showers
12:25 AM 75.2 °F 73.4 °F 94% 29.95 in 5.6 mi ESE 6.9 mph - N/A Rain Light Rain Showers
1:00 AM 75 °F 73 °F 92% 29.89 in - SE 9.2 mph - -  
1:00 AM 75.2 °F 73.4 °F 94% 29.92 in 6.2 mi SE 9.2 mph - N/A Rain Light Rain Showers
1:03 AM 75.2 °F 73.4 °F 94% 29.92 in 6.2 mi SE 9.2 mph - N/A Rain Light Rain Showers
2:00 AM 75.2 °F 73.4 °F 94% 29.92 in 6.2 mi ESE 10.4 mph - N/A   Overcast
2:53 AM 75.2 °F 73.4 °F 94% 29.92 in 6.2 mi ESE 9.2 mph - N/A   Overcast
3:00 AM 75 °F 72 °F 89% 29.87 in - ESE 9.2 mph - -   Overcast
3:00 AM 75.2 °F 73.4 °F 94% 29.92 in 6.2 mi ESE 9.2 mph - N/A   Overcast
3:27 AM 75.2 °F 73.4 °F 94% 29.89 in 6.2 mi ESE 9.2 mph - N/A   Overcast
4:00 AM 75 °F 73 °F 90% 29.87 in - ESE 9.2 mph - -  
4:00 AM 75.2 °F 73.4 °F 94% 29.89 in 6.2 mi ESE 9.2 mph - N/A   Overcast
5:00 AM 75.2 °F 73.4 °F 94% 29.89 in 6.2 mi ESE 8.1 mph - N/A   Overcast
5:21 AM 75.2 °F 73.4 °F 94% 29.92 in 6.2 mi SE 9.2 mph - N/A   Overcast
5:47 AM 75.2 °F 73.4 °F 94% 29.92 in 6.2 mi SE 9.2 mph - N/A   Overcast
6:00 AM 76 °F 73 °F 89% 29.88 in - SE 10.4 mph - -   Overcast
6:00 AM 75.2 °F 73.4 °F 94% 29.92 in 6.2 mi SE 10.4 mph - N/A   Overcast
6:34 AM 75.2 °F 75.2 °F 100% 29.92 in 3.1 mi SE 10.4 mph - N/A   Overcast
6:41 AM 75.2 °F 75.2 °F 100% 29.92 in 0.5 mi ESE 11.5 mph - N/A   Overcast
6:52 AM 75.2 °F 75.2 °F 100% 29.92 in 0.6 mi ESE 11.5 mph - N/A   Overcast
7:00 AM 75 °F 74 °F 96% 29.89 in - SE 12.7 mph - -  
7:00 AM 75.2 °F 73.4 °F 94% 29.92 in 2.5 mi SE 12.7 mph - N/A   Overcast
7:12 AM 75.2 °F 73.4 °F 94% 29.92 in 6.2 mi SE 11.5 mph - N/A   Overcast
8:00 AM 75.2 °F 73.4 °F 94% 29.95 in 6.2 mi ESE 12.7 mph - N/A   Overcast
9:00 AM 75 °F 74 °F 95% 29.92 in - SE 13.8 mph - -   Overcast
9:00 AM 75.2 °F 73.4 °F 94% 29.95 in 6.2 mi SE 13.8 mph - N/A   Overcast
10:00 AM 76 °F 74 °F 91% 29.92 in - ESE 13.8 mph - -  
10:00 AM 75.2 °F 73.4 °F 94% 29.95 in 6.2 mi ESE 13.8 mph - N/A   Overcast
10:56 AM 75.2 °F 73.4 °F 94% 29.95 in 3.1 mi SE 12.7 mph - N/A Rain Heavy Rain
11:00 AM 75.2 °F 73.4 °F 94% 29.95 in 2.2 mi ESE 13.8 mph - N/A Rain Rain
11:33 AM 73.4 °F 73.4 °F 100% 29.95 in 6.2 mi SE 12.7 mph - N/A Rain Light Rain Showers
12:00 PM 74 °F 73 °F 97% 29.90 in - SE 10.4 mph - -  
12:00 PM 75.2 °F 73.4 °F 94% 29.92 in 6.2 mi SE 10.4 mph - N/A   Overcast
1:00 PM 74 °F 73 °F 95% 29.88 in - SE 9.2 mph - -  
1:00 PM 73.4 °F 73.4 °F 100% 29.92 in 5.0 mi SE 9.2 mph - N/A Rain Light Rain Showers
1:06 PM 73.4 °F 73.4 °F 100% 29.92 in 6.2 mi SE 10.4 mph 23.0 mph N/A Rain Light Rain Showers
2:00 PM 73.4 °F 71.6 °F 94% 29.89 in 6.2 mi SE 9.2 mph - N/A   Overcast
2:09 PM 73.4 °F 73.4 °F 100% 29.89 in 5.6 mi ESE 10.4 mph - N/A Rain Light Rain Showers
2:10 PM 73.4 °F 73.4 °F 100% 29.89 in 5.6 mi ESE 10.4 mph - N/A Rain Light Rain Showers
3:00 PM 74 °F 72 °F 92% 29.88 in - SE 9.2 mph - -   Overcast
3:00 PM 73.4 °F 71.6 °F 94% 29.92 in 6.2 mi SE 9.2 mph - N/A Rain Light Rain Showers
3:15 PM 73.4 °F 71.6 °F 94% 29.92 in 6.2 mi ESE 8.1 mph - N/A Rain Light Rain
3:31 PM 75.2 °F 71.6 °F 89% 29.92 in 6.2 mi SE 9.2 mph - N/A   Overcast
4:00 PM 74 °F 71 °F 89% 29.87 in - SE 11.5 mph - -  
4:00 PM 73.4 °F 71.6 °F 94% 29.92 in 6.2 mi SE 11.5 mph - N/A   Overcast
4:23 PM 73.4 °F 73.4 °F 100% 29.92 in 3.7 mi SSE 6.9 mph - N/A Rain Light Rain Showers
4:55 PM 73.4 °F 73.4 °F 100% 29.92 in 1.3 mi SE 9.2 mph - N/A Rain Light Rain Showers
5:00 PM 73.4 °F 71.6 °F 94% 29.92 in 6.2 mi SE 9.2 mph - N/A Rain Light Rain Showers
5:08 PM 73.4 °F 71.6 °F 94% 29.92 in 6.2 mi SE 9.2 mph - N/A Rain Light Rain Showers
5:18 PM 73.4 °F 71.6 °F 94% 29.92 in 6.2 mi SE 9.2 mph - N/A Rain Light Rain Showers
5:39 PM 73.4 °F 71.6 °F 94% 29.92 in 1.9 mi ESE 10.4 mph - N/A Rain Rain Showers
5:46 PM 73.4 °F 73.4 °F 100% 29.92 in 0.3 mi East 10.4 mph - N/A Rain Rain Showers
5:51 PM 73.4 °F 73.4 °F 100% 29.92 in 0.2 mi East 10.4 mph - N/A Rain Rain Showers
5:52 PM 73.4 °F 73.4 °F 100% 29.92 in 0.2 mi East 10.4 mph - N/A Rain Rain Showers
5:53 PM 73.4 °F 73.4 °F 100% 29.92 in 0.2 mi East 10.4 mph - N/A Rain Rain Showers
6:00 PM 73 °F 72 °F 98% 29.89 in 1 mi East 9.2 mph - -   Overcast
6:00 PM 73.4 °F 73.4 °F 100% 29.92 in 1.1 mi East 9.2 mph - N/A Rain Rain
6:12 PM 73.4 °F 71.6 °F 94% 29.92 in 5.0 mi SE 11.5 mph - N/A Rain Rain
7:00 PM 73 °F 72 °F 95% 29.89 in - SE 10.4 mph - -  
7:00 PM 73.4 °F 71.6 °F 94% 29.92 in 6.2 mi SE 10.4 mph - N/A Rain Light Rain
7:33 PM 73.4 °F 71.6 °F 94% 29.92 in 6.2 mi SE 11.5 mph - N/A   Light Drizzle
8:00 PM 75.2 °F 73.4 °F 94% 29.95 in 6.2 mi SE 12.7 mph - N/A Rain Light Rain Showers
9:00 PM 74 °F 71 °F 88% 29.92 in - SE 15.0 mph - -   Overcast
9:00 PM 75.2 °F 71.6 °F 89% 29.95 in 6.2 mi SE 15.0 mph - N/A   Overcast
9:04 PM 75.2 °F 71.6 °F 89% 29.95 in 6.2 mi SE 15.0 mph - N/A   Overcast
9:12 PM 75.2 °F 71.6 °F 89% 29.95 in 6.2 mi SE 12.7 mph - N/A   Overcast
9:55 PM 75.2 °F 69.8 °F 83% 29.95 in 6.2 mi SE 11.5 mph - N/A   Overcast
10:00 PM 75 °F 70 °F 81% 29.91 in - SE 12.7 mph - -  
10:00 PM 75.2 °F 69.8 °F 83% 29.95 in 6.2 mi SE 12.7 mph - N/A   Overcast
11:00 PM 75.2 °F 71.6 °F 89% 29.95 in 6.2 mi SE 12.7 mph - N/A   Overcast
11:48 PM 75.2 °F 71.6 °F 89% 29.95 in 6.2 mi SE 12.7 mph - N/A   Overcast